Flight Track Log - Related Links

Times and Time Zones

All times are in EDT time to prevent confusion due to time zone crossing. See the SWA691 flight status page for this flight to view local times or setup timezone preferences in your user account.

Time Position Orientation Groundspeed Altitude Reporting Facility
EDT Latitude Longitude Course Direction KTS MPH feet Rate Location/Type
10:40AM 27.9833 -82.5333 327° Northwest 161 185 700  Level Tampa TRACON
10:41AM 28.0500 -82.5833 327° Northwest 231 266 5,700 3,609 Climbing Tampa TRACON
10:42AM 28.0000 -82.6167 210° Southwest 280 322 8,700 2,901 Climbing Tampa TRACON
10:44AM 27.8683 -82.6131 179° South 308 354 13,000 3,000 Climbing Miami Center
10:45AM 27.7950 -82.5694 152° Southeast 320 368 16,500 3,150 Climbing Miami Center
10:46AM 27.7050 -82.5181 153° Southeast 335 386 19,300 2,900 Climbing Miami Center
10:47AM 27.6100 -82.4408 144° Southeast 378 435 22,300 2,430 Climbing Miami Center
10:48AM 27.5153 -82.3589 142° Southeast 416 479 24,200 1,350 Climbing Miami Center
10:49AM 27.4203 -82.2772 143° Southeast 431 496 25,000 403 Climbing Miami Center
10:50AM 27.3350 -82.2078 144° Southeast 431 496 25,000  Level Miami Center
10:51AM 27.2419 -82.1286 143° Southeast 422 486 25,000  Level Miami Center
10:52AM 27.1408 -82.0447 144° Southeast 422 486 25,000  Level Miami Center
10:53AM 27.0475 -81.9636 142° Southeast 422 486 25,000  Level Miami Center
10:54AM 26.9689 -81.8881 139° Southeast 422 486 25,000  Level Miami Center
10:55AM 26.8864 -81.7983 136° Southeast 422 486 25,000  Level Miami Center
10:56AM 26.7997 -81.7064 137° Southeast 422 486 25,000 -200 Level Miami Center
10:57AM 26.7092 -81.6050 135° Southeast 422 486 24,600 -1,350 Descending Miami Center
10:58AM 26.6261 -81.5203 138° Southeast 412 474 22,300 -2,300 Descending Miami Center
10:59AM 26.5578 -81.4433 135° Southeast 407 468 20,000 -2,250 Descending Miami Center
11:00AM 26.4789 -81.3614 137° Southeast 396 456 17,800 -2,200 Descending Miami Center
11:01AM 26.4058 -81.2867 137° Southeast 371 427 15,600 -2,200 Descending Miami Center
11:02AM 26.3372 -81.2122 136° Southeast 356 410 13,400 -2,100 Descending Miami Center
11:03AM 26.2683 -81.1403 137° Southeast 351 404 11,400 -1,684 Descending Miami Center
11:04AM 26.2014 -81.0753 139° Southeast 322 371 10,200 -1,200 Descending Miami Center
11:05AM 26.1533 -80.9950 124° Southeast 299 344 9,000 -1,024 Descending Miami Center
11:06AM 26.1408 -80.9206 101° East 274 315 8,100 -923 Descending Miami Center
11:07AM 26.1308 -80.8322 97° East 276 318 7,200 -976 Descending Miami Center
11:08AM 26.1228 -80.7417 96° East 272 313 6,100 -537 Descending Miami Center
11:09AM 26.1083 -80.6558 101° East 278 320 6,100 -200 Level Miami Center
11:10AM 26.1019 -80.5817 95° East 277 319 5,700 -700 Descending Miami Center
11:11AM 26.0914 -80.4981 98° East 277 319 4,700 -900 Descending Miami Center
11:12AM 26.0831 -80.4122 96° East 277 319 3,900 -871 Descending Miami Center
11:13AM 26.0769 -80.3242 94° East 252 290 2,900 -952 Descending Miami Center
11:14AM 26.0742 -80.2639 93° East 154 177 1,900 -976 Descending Miami Center
11:15AM 26.0753 -80.2175 88° East 140 161 900 -984 Descending Miami Center
11:17AM 26.0726 -80.1527 180° South  Level Estimated
11:24AM 26.0667 -80.1500 180° South  Level FlightAware Approximate

Login

Don't have an account? Register now (free) for customized features, flight alerts, and more!